Weather in Puerto Barrios

Guatemala     15°43′19″N   88°35′27″W
temp.,
°C
wind,
m/s
gust,
m/s
humid.,
%
clouds,
%
prec.,
mm/h
press.,
hPa
HPBL,
m
15 august, mon
mon1500:00+25se1193100 2.1 101268
03:00+24ssw1194100 2.6 101163
06:00+24ssw2395100 2.8 101188
09:00+28wsw1176100 0.1 1012453
12:00+31nnw326565 0.1 10111186
15:00+30nne3374100 0.8 1009835
18:00+26ene269398 2.1 1009275
21:00+25e2694100 1.4 1011250
16 august, tue
tue1600:00+24e129592 5.0 1011102
03:00+24ssw129698 0.3 101080
06:00+24ssw239570 0.4 101084
09:00+29w117556 0.1 1012611
12:00+29nnw327147 0.3 1011862
15:00+28ne348699 1.3 1009498
18:00+26ene389130 2.5 1011402
21:00+24e1492100 0.4 1012148
17 august, wed
wed1700:00+24s229648 1.2 1011117
03:00+24sw129596 1.3 101078
06:00+24sw239354 3.8 1011202
09:00+27wsw238871 4.4 1013272
12:00+28nne128713 6.5 1012167
15:00+29nne346822 1.0 1010923
18:00+25ne259199 4.0 1011223
21:00+24ene2494100 7.3 1013160
18 august, thu
thu1800:00+24s1195100 12.8 101260
03:00+24sw1396100 4.2 1011109
06:00+24wsw139690 7.6 1012151
09:00+26wnw2386100 0.4 1013525
12:00+28nnw3279100 0.7 1012811
15:00+28ne2277100 0.4 1010605
18:00+26e1388100 0.4 1010147
21:00+24ese1295100 1.5 101281
19 august, fri
fri1900:00+24ssw1297100 3.4 101296
03:00+24sw2496100 0.4 1010127
06:00+23sw249694 0.5 1011151
09:00+28sw1277100 0.0 1013484
12:00+30nne3365100 0.0 10111226
15:00+29ne3369100 0.1 1010805
18:00+27ene368185 0.1 1011342
21:00+25se138799 0.0 101398